This is the latest recevied weather packets stored in our database for station/object HJ3JCG-13. If no packets are shown the sender has not sent any weather packets the latest 10 day(s).
| Time | Temp. | Humidity | Pressure | Rain* | Wind** | Luminosity | Snow |
|---|---|---|---|---|---|---|---|
| 1777738312 | 15.56° C | 82% | 1016 hPa | 0 mm | - | - | - |
| 1777737711 | 15.56° C | 82% | 1016 hPa | 0 mm | - | - | - |
| 1777737111 | 15.56° C | 86% | 1016 hPa | 0 mm | - | - | - |
| 1777736510 | 15.56° C | 84% | 1016 hPa | 0 mm | - | - | - |
| 1777735910 | 15.56° C | 84% | 1016 hPa | 0 mm | - | - | - |
| 1777735309 | 15.56° C | 84% | 1016 hPa | 0 mm | - | - | - |
| 1777734708 | 15.56° C | 84% | 1016 hPa | 0 mm | - | - | - |
| 1777734108 | 15.56° C | 86% | 1016 hPa | 0 mm | - | - | - |
| 1777733507 | 17.78° C | 96% | 1016 hPa | 0 mm | - | - | - |
| 1777732907 | 15.56° C | 96% | 1016 hPa | 0 mm | - | - | - |
| 1777732306 | 13.33° C | 96% | 1017 hPa | 0 mm | - | - | - |
| 1777731705 | 13.33° C | 96% | 1017 hPa | 0 mm | - | - | - |
| 1777731105 | 13.33° C | 96% | 1017 hPa | 0 mm | - | - | - |
| 1777730504 | 13.33° C | 10% | - | 0 mm | - | - | - |
| 1777729904 | 13.33° C | 10% | - | 0 mm | - | - | - |
| 1777729303 | 15° C | 99% | 1017 hPa | 0 mm | - | - | - |
| 1777728703 | 12.78° C | 99% | 1017 hPa | 0 mm | - | - | - |
| 1777728102 | 11.11° C | 99% | 1018 hPa | 0 mm | - | - | - |
| 1777727501 | 12.78° C | 99% | 1018 hPa | 0 mm | - | - | - |
| 1777726901 | 11.11° C | 99% | 1018 hPa | 0 mm | - | - | - |
| 1777726300 | 11.11° C | 99% | 1018 hPa | 0 mm | - | - | - |
| 1777725700 | 11.67° C | 10% | - | 0 mm | - | - | - |
| 1777725099 | 12.22° C | 99% | 1018 hPa | 0 mm | - | - | - |
| 1777724499 | 10.56° C | 99% | 1018 hPa | 0 mm | - | - | - |
| 1777723898 | 10.56° C | 99% | 1018 hPa | 0 mm | - | - | - |
* Rain latest hour (hover to see other rain measurements)
** Current wind speed in m/s (hover to see current wind gust speed)